Tracking 19709 objects as of 17-Jun-2019
HD Live streaming from Space Station
objects crossing your sky now

COSMOS 397 DEB

Track COSMOS 397 DEB now!
10-day predictions


NORAD ID: 5763
Int'l Code: 1971-015CF
Perigee: 864.3 km
Apogee: 1,424.4 km
Inclination: 66.9 °
Period: 108.1 minutes
Semi major axis: 7515 km
RCS: 0.0229 m2 (small)
Launch date: February 25, 1971
Source: Commonwealth of Independent States (former USSR) (CIS)
Launch site: TYURATAM MISSILE AND SPACE COMPLEX (TTMTR)

Note: This is SATELLITE DEBRIS
aabbcc
Your satellite tracking list
Your tracking list is empty




NASA's NSSDC Master Catalog

Two Line Element Set (TLE):
1  5763U 71015CF  19167.50034586  .00000402  00000-0  65165-3 0  9992
2  5763  66.9014 186.7642 0372625 130.0417 233.3957 13.32538764311496
Source of the keplerian elements: AFSPC